ORBCOMM FM104 [-] (40090 NORAD) Tracking and Keplerian Element Data

This shows tracking and keplerian element data for the satellite.

Feedback or suggestion? Click here.




ElementValue
Catalog40090
NameORBCOMM FM104 [-]
Epoch Orbit21307
Epoch Day198.90185532
Epoch Year2018
RAAN23.3426
Inclination47.0072
Eccentricity0.0017828
Argument of Perigee225.4712
Mean Anonmoly134.4716
Mean Motion14.53296252
Decay Rate-1.15E-06
L11 40090U 14040E 18198.90185532 -.00000115 00000-0 12139-4 0 9990
L22 40090 47.0072 23.3426 0017828 225.4712 134.4716 14.53296252213072

Live tracking and technical data element details for ORBCOMM FM104 [-] (NORAD 40090). ORBCOMM FM104 [-] can be tracked NOW for your location showing map with azimuth and elevation plus other details from your city location.

Track the satellite on the map from your city or location and see movement details for azimuth, elevation, latitude, longitude, range, height, and movement on the map or in text.







IsCatalogInMostPopularTable: catalog: 40090, numindb: 69
Update: records affected: 1



GetName: 40090 ORBCOMM FM104 [-]

Hit Count: updated at: Fri, 20 Jul 2018 20:29:16 GMT